User: anonymous   Login
Location: Melara
(45.0500°N, 11.1833°E)
Time: 04:30:39
(UTC+00:00)
Language:

IRS-1D - Orbit

View from above orbital plane
View from above orbital plane
View from above satellite
View from above satellite

Ground track
Ground track

The orbit data is extracted from the following two-line orbital elements,

1 24971U 97057A   22228.45575076  .00000082  00000-0  44601-4 0  9995
2 24971  98.6602 181.3012 0054217  36.9806 323.5091 14.34147219301758
Epoch (UTC): 16 August 2022 10:56:16
Eccentricity: 0.0054217
inclination: 98.6602°
perigee height: 739 km
apogee height: 817 km
right ascension of ascending node: 181.3012°
argument of perigee: 36.9806°
revolutions per day: 14.34147219
mean anomaly at epoch: 323.5091°
orbit number at epoch: 30175

The dashed part of the orbit path shows where the satellite is in the earth's shadow,  

DLR